• In Uzbekistan
  • List of Countries
  • For 7 days
  • Water Temperature
  • Satellite Maps
  • Weather Map
  • Weather Widgets
  • user-avatar
    Login

    Hourly Weather Nakuru

    Today, 17 January, Thursday

    Time Temperature Precipitation Wind Pressure Humidity
    00:00 +16°C° 0 mm 1 mps 606 mmHg 84%
    01:00 +16°C° 0 mm 1 mps 605 mmHg 86%
    02:00 +14°C° 0 mm 0 mps 605 mmHg 87%
    03:00 +14°C° 0 mm 1 mps 605 mmHg 87%
    04:00 +14°C° 0 mm 1 mps 604 mmHg 87%
    05:00 +14°C° 0 mm 1 mps 604 mmHg 86%
    06:00 +16°C° 0 mm 1 mps 605 mmHg 77%
    07:00 +19°C° 0 mm 1 mps 606 mmHg 68%
    08:00 +21°C° 0 mm 1 mps 607 mmHg 59%
    09:00 +21°C° 0 mm 2 mps 607 mmHg 52%
    10:00 +24°C° 0 mm 3 mps 608 mmHg 45%
    11:00 +26°C° 0 mm 4 mps 608 mmHg 38%
    12:00 +27°C° 0 mm 4 mps 608 mmHg 37%
    13:00 +27°C° 0 mm 4 mps 607 mmHg 35%
    14:00 +28°C° 0 mm 4 mps 607 mmHg 34%
    15:00 +27°C° 0 mm 4 mps 606 mmHg 38%
    16:00 +25°C° 0 mm 4 mps 606 mmHg 42%
    17:00 +23°C° 0 mm 4 mps 606 mmHg 46%
    18:00 +21°C° 0 mm 3 mps 605 mmHg 53%
    19:00 +19°C° 0 mm 2 mps 605 mmHg 61%
    20:00 +18°C° 0 mm 1 mps 605 mmHg 69%
    21:00 +16°C° 0 mm 1 mps 605 mmHg 73%
    22:00 +16°C° 0 mm 1 mps 604 mmHg 78%
    23:00 +15°C° 0 mm 1 mps 604 mmHg 82%

    Tomorrow, 18 January, Friday

    Time Temperature Precipitation Wind Pressure Humidity
    00:00 +15°C° 0 mm 1 mps 604 mmHg 83%
    01:00 +14°C° 0 mm 1 mps 604 mmHg 84%
    02:00 +14°C° 0 mm 1 mps 603 mmHg 85%
    03:00 +14°C° 0 mm 1 mps 604 mmHg 85%
    04:00 +14°C° 0 mm 1 mps 604 mmHg 85%
    05:00 +14°C° 0 mm 1 mps 604 mmHg 84%
    06:00 +16°C° 0 mm 1 mps 605 mmHg 75%
    07:00 +19°C° 0 mm 1 mps 606 mmHg 66%
    08:00 +21°C° 0 mm 1 mps 607 mmHg 57%
    09:00 +23°C° 0 mm 2 mps 607 mmHg 50%
    10:00 +25°C° 0 mm 3 mps 608 mmHg 43%
    11:00 +26°C° 0 mm 4 mps 608 mmHg 35%
    12:00 +27°C° 0 mm 4 mps 607 mmHg 34%
    13:00 +28°C° 0 mm 4 mps 607 mmHg 33%
    14:00 +28°C° 0 mm 4 mps 606 mmHg 31%
    15:00 +27°C° 0 mm 4 mps 606 mmHg 36%
    16:00 +26°C° 0 mm 5 mps 605 mmHg 41%
    17:00 +23°C° 0 mm 5 mps 605 mmHg 45%
    18:00 +21°C° 0 mm 4 mps 605 mmHg 52%
    19:00 +19°C° 0 mm 2 mps 605 mmHg 60%
    20:00 +18°C° 0 mm 1 mps 605 mmHg 67%
    21:00 +16°C° 0 mm 1 mps 605 mmHg 70%
    22:00 +15°C° 0 mm 1 mps 605 mmHg 74%
    23:00 +15°C° 0 mm 1 mps 605 mmHg 77%

    Day after tomorrow, 19 January, Saturday

    Time Temperature Precipitation Wind Pressure Humidity
    00:00 +14°C° 0 mm 1 mps 604 mmHg 78%
    01:00 +14°C° 0 mm 1 mps 604 mmHg 79%
    02:00 +14°C° 0 mm 1 mps 604 mmHg 80%
    03:00 +14°C° 0 mm 1 mps 604 mmHg 80%
    04:00 +13°C° 0 mm 1 mps 604 mmHg 81%
    05:00 +13°C° 0 mm 1 mps 604 mmHg 81%
    06:00 +15°C° 0 mm 1 mps 605 mmHg 70%
    07:00 +19°C° 0 mm 1 mps 606 mmHg 59%
    08:00 +21°C° 0 mm 1 mps 607 mmHg 49%
    09:00 +23°C° 0 mm 2 mps 608 mmHg 43%
    10:00 +25°C° 0 mm 3 mps 608 mmHg 38%
    11:00 +26°C° 0 mm 4 mps 608 mmHg 33%
    12:00 +27°C° 0 mm 4 mps 608 mmHg 31%
    13:00 +28°C° 0 mm 4 mps 607 mmHg 29%
    14:00 +28°C° 0 mm 4 mps 606 mmHg 27%
    15:00 +27°C° 0 mm 4 mps 606 mmHg 30%
    16:00 +26°C° 0 mm 4 mps 606 mmHg 34%
    17:00 +25°C° 0 mm 4 mps 606 mmHg 38%
    18:00 +22°C° 0 mm 3 mps 606 mmHg 43%
    19:00 +20°C° 0 mm 2 mps 606 mmHg 48%
    20:00 +19°C° 0 mm 1 mps 606 mmHg 54%
    21:00 +18°C° 0 mm 1 mps 606 mmHg 58%
    22:00 +16°C° 0 mm 1 mps 606 mmHg 63%
    23:00 +14°C° 0 mm 0 mps 606 mmHg 67%

    20 January, Sunday

    Time Temperature Precipitation Wind Pressure Humidity
    00:00 +14°C° 0 mm 0 mps 605 mmHg 68%
    01:00 +15°C° 0 mm 1 mps 605 mmHg 69%
    02:00 +14°C° 0 mm 1 mps 604 mmHg 69%
    03:00 +14°C° 0 mm 1 mps 604 mmHg 70%
    04:00 +14°C° 0 mm 1 mps 604 mmHg 71%
    05:00 +13°C° 0 mm 1 mps 605 mmHg 72%
    06:00 +16°C° 0 mm 1 mps 606 mmHg 64%
    07:00 +19°C° 0 mm 1 mps 607 mmHg 56%
    08:00 +21°C° 0 mm 1 mps 608 mmHg 49%
    09:00 +23°C° 0 mm 2 mps 608 mmHg 44%
    10:00 +24°C° 0 mm 3 mps 608 mmHg 39%
    11:00 +26°C° 0 mm 3 mps 609 mmHg 34%
    12:00 +27°C° 0 mm 3 mps 608 mmHg 32%
    13:00 +27°C° 0 mm 4 mps 607 mmHg 31%
    14:00 +28°C° 0 mm 4 mps 607 mmHg 29%
    15:00 +27°C° 0 mm 4 mps 607 mmHg 31%
    16:00 +26°C° 0 mm 4 mps 606 mmHg 32%
    17:00 +25°C° 0 mm 4 mps 606 mmHg 34%
    18:00 +22°C° 0 mm 3 mps 606 mmHg 39%
    19:00 +20°C° 0 mm 2 mps 606 mmHg 44%
    20:00 +18°C° 0 mm 1 mps 606 mmHg 49%
    21:00 +18°C° 0 mm 1 mps 606 mmHg 53%
    22:00 +16°C° 0 mm 1 mps 606 mmHg 57%
    23:00 +15°C° 0 mm 1 mps 606 mmHg 61%

    21 January, Monday

    Time Temperature Precipitation Wind Pressure Humidity
    00:00 +14°C° 0 mm 1 mps 605 mmHg 64%
    01:00 +14°C° 0 mm 1 mps 605 mmHg 66%
    02:00 +14°C° 0 mm 1 mps 604 mmHg 68%
    03:00 +13°C° 0 mm 1 mps 604 mmHg 69%
    04:00 +13°C° 0 mm 1 mps 604 mmHg 70%
    05:00 +13°C° 0 mm 1 mps 604 mmHg 71%
    06:00 +15°C° 0 mm 1 mps 606 mmHg 63%
    07:00 +18°C° 0 mm 1 mps 607 mmHg 54%
    08:00 +21°C° 0 mm 1 mps 608 mmHg 46%
    09:00 +23°C° 0 mm 2 mps 608 mmHg 41%
    10:00 +24°C° 0 mm 3 mps 608 mmHg 37%
    11:00 +26°C° 0 mm 4 mps 608 mmHg 32%
    12:00 +27°C° 0 mm 4 mps 608 mmHg 31%
    13:00 +27°C° 0 mm 4 mps 607 mmHg 30%
    14:00 +28°C° 0 mm 4 mps 607 mmHg 28%
    15:00 +27°C° 0 mm 4 mps 606 mmHg 31%
    16:00 +26°C° 0 mm 4 mps 606 mmHg 34%
    17:00 +25°C° 0 mm 3 mps 606 mmHg 37%
    18:00 +23°C° 0 mm 2 mps 606 mmHg 41%
    19:00 +21°C° 0 mm 1 mps 606 mmHg 45%
    20:00 +20°C° 0 mm 1 mps 606 mmHg 48%
    21:00 +18°C° 0 mm 1 mps 606 mmHg 53%
    22:00 +15°C° 0 mm 0 mps 606 mmHg 57%
    23:00 +14°C° 0 mm 0 mps 605 mmHg 62%

    22 January, Tuesday

    Time Temperature Precipitation Wind Pressure Humidity
    00:00 +15°C° 0 mm 1 mps 605 mmHg 65%
    01:00 +14°C° 0 mm 1 mps 604 mmHg 67%
    02:00 +14°C° 0 mm 1 mps 604 mmHg 70%
    03:00 +14°C° 0 mm 1 mps 604 mmHg 72%
    04:00 +13°C° 0 mm 1 mps 604 mmHg 74%
    05:00 +13°C° 0 mm 1 mps 604 mmHg 76%
    06:00 +16°C° 0 mm 1 mps 605 mmHg 68%
    07:00 +19°C° 0 mm 1 mps 606 mmHg 59%
    08:00 +21°C° 0 mm 1 mps 607 mmHg 50%
    09:00 +23°C° 0 mm 2 mps 608 mmHg 44%
    10:00 +25°C° 0 mm 3 mps 608 mmHg 38%
    11:00 +27°C° 0 mm 3 mps 608 mmHg 32%
    12:00 +28°C° 0 mm 4 mps 607 mmHg 31%
    13:00 +28°C° 0 mm 4 mps 607 mmHg 29%
    14:00 +29°C° 0 mm 4 mps 606 mmHg 27%
    15:00 +28°C° 0 mm 4 mps 606 mmHg 31%
    16:00 +27°C° 0 mm 3 mps 606 mmHg 34%
    17:00 +25°C° 0 mm 3 mps 606 mmHg 37%
    18:00 +23°C° 0 mm 2 mps 606 mmHg 44%
    19:00 +20°C° 0 mm 2 mps 606 mmHg 52%
    20:00 +19°C° 0 mm 1 mps 605 mmHg 59%
    21:00 +18°C° 0 mm 1 mps 605 mmHg 65%
    22:00 +16°C° 0 mm 1 mps 605 mmHg 71%
    23:00 +15°C° 0 mm 1 mps 605 mmHg 77%
    Show more